Location: St. Louis
(38.6270°N, 90.1994°W)
Time: 17:59:21
(UTC-06:00)

Tiros 1 - Pass Details

Date: 01 December 2021
Orbit: 629 x 664 km, 48.4° (Epoch: 26 January)

Event Time Altitude Azimuth Distance (km) Brightness Sun altitude
Rises 17:59:04 0° 206° (SSW) 2,903 11.2 -15.2°
Reaches altitude 10° 18:01:36 10° 194° (SSW) 2,002 10.1 -15.6°
Maximum altitude 18:05:33 28° 135° (SE) 1,176 8.2 -16.4°
Enters shadow 18:06:48 25° 108° (ESE) 1,286 8.2 -16.6°
